Regional Weather Roundup
Issued by NWS Charleston, SC

Current Version | Previous Version | Text Only | Print | Product List | Glossary On
Versions: 1 2 3 4 5 6 7 8 9 10 11 12 13 14 15 16 17 18 19 20 21 22 23 24 25 26 27 28 29 30 31 32 33 34 35 36 37 38 39 40 41 42 43 44 45 46 47 48 49 50
000 ASUS42 KCHS 310010 RWRCHS REGIONAL WEATHER ROUNDUP NATIONAL WEATHER SERVICE CHARLESTON SC 800 PM EDT WED JUL 30 2014 NOTE: "FAIR" INDICATES FEW OR NO CLOUDS BELOW 12,000 FEET WITH NO SIGNIFICANT WEATHER AND/OR OBSTRUCTIONS TO VISIBILITY. NOT ALL STATIONS ARE QUALITY CONTROLLED BY THE NATIONAL WEATHER SERVICE. USE DATA WITH CAUTION...ESPECIALLY DEWPOINT OBSERVATIONS. SCZ027-030-031-034>040-042>050-310100- ...SOUTH CAROLINA... CITY SKY/WX TMP DP RH WIND PRES REMARKS N CHARLESTON MOCLDY 83 69 62 E7 30.01R 6HR MIN TEMP: 83; 6HR MAX TEMP: 88; WATERFRONT PRK N/A 82 N/A N/A E14 N/A FORT JOHNSON NOT AVBL MOUNT PLEASANT FAIR 81 72 74 CALM 30.01R JOHNS ISLAND CLOUDY 82 70 65 E9 30.01R PINOPOLIS N/A 79 72 78 N13 29.94R MONCKS CORNER N/A 79 73 83 N3 30.02R SUMMERVILLE CLOUDY 75 70 83 N6 30.02R BEAUFORT MCAS MOCLDY 83 70 64 SE9 29.99R 6HR MIN TEMP: 83; 6HR MAX TEMP: 88; BEAUFORT ARPT FAIR 81 72 74 E6 29.98S HILTON HEAD IS PTCLDY 82 70 65 E6 29.99R GEORGETOWN NOT AVBL WALTERBORO CLOUDY 73 N/A N/A NE5 30.01S ORANGEBURG PTCLDY 76 69 79 CALM 30.01S 6HR MIN TEMP: 73; 6HR MAX TEMP: 87; 6HR PCP: 0.05; BARNWELL MOCLDY 81 68 65 E6 30.01R AIKEN CLOUDY 79 68 69 SE9 30.04R MANNING CLOUDY 73 N/A N/A CALM 30.02S KINGSTREE NOT AVBL COLUMBIA PTCLDY 79 66 64 E7 30.00S 6HR MIN TEMP: 79; 6HR MAX TEMP: 92; SUMTER MOCLDY 77 68 74 E2 30.00S 6HR MIN TEMP: 77; 6HR MAX TEMP: 89; 6HR PCP: TRACE; FLORENCE MOCLDY 80 67 64 SE5 30.02R 6HR MIN TEMP: 80; 6HR MAX TEMP: 88; MYRTLE BEACH MOCLDY 81 64 57 E12 30.01S N MYRTLE BEACH CLOUDY 81 64 56 E9 30.02R 6HR MIN TEMP: 81; 6HR MAX TEMP: 85; $$ GAZ063-065-086>088-099>101-113>116-118-119-134-136>141-150-310100- ...GEORGIA... CITY SKY/WX TMP DP RH WIND PRES REMARKS SAVANNAH ARPT MOCLDY 80 73 79 SE7 29.98R 6HR MIN TEMP: 73; 6HR MAX TEMP: 88; 6HR PCP: 1.12; HUNTER AAF PTCLDY 78 74 87 E2 29.96R 6HR MIN TEMP: 78; 6HR MAX TEMP: 87; 6HR PCP: 0.01; FORT STEWART MOCLDY 78 74 87 NE5 29.96R 6HR MIN TEMP: 78; 6HR MAX TEMP: 89; 6HR PCP: 0.03; STATESBORO NOT AVBL SYLVANIA MOCLDY 76 73 90 E7 30.01R CLAXTON CLOUDY 82 73 74 CALM 29.97S HAZE THOMSON PTCLDY 83 74 76 CALM 30.03S AUGUSTA-BUSH PTCLDY 81 68 64 E6 29.98R 6HR MIN TEMP: 81; 6HR MAX TEMP: 89; AUGUSTA-DANIEL MOCLDY 84 66 54 SE7 30.00R SWAINSBORO MOCLDY 88 68 51 E3 29.99R HX 91 VIDALIA N/A 84 70 61 E12 29.98R ALMA CLOUDY 87 59 38 CALM 29.95R 6HR MIN TEMP: 87; 6HR MAX TEMP: 94; WAYCROSS PTCLDY 87 71 58 CALM 29.94S HX 92 JESUP FAIR 86 73 66 SE5 29.96R HX 93 BRUNSWICK PTCLDY 82 72 69 E5 29.96S SAINT SIMONS MOCLDY 81 72 74 E8G20 29.96R 6HR MIN TEMP: 79; 6HR MAX TEMP: 89; 6HR PCP: 0.07; $$ SCZ027-028-034-036>038-045-046-048>050-GAZ119-141-310100- ...LAKE AND SUPPLEMENTAL COASTAL OBSERVATIONS... STATION/POSITION TIME TEMP WIND PRES WAVE SWELL AIR SEA DIR/SP/G HT/PER HT/PER/DIR (UTC) (F) (DEG/KT/KT) (MB) (FT/S) (FT/S/D) UPR LAKE MARION NOT AVBL WINYAH BAY 2300 82 90/ 11 1016.0S LAKE MURRAY 2300 80 120/ 6/ 11 1015.6R ACE BASIN NERRS 2300 83 90/ 4 1015.0S FORT PULASKI 0000 82 110/ 7/ 10 1015.2R SAPELO ISLAND 2300 84 90/ 6 1015.0S $$ ANZ835-935-AMZ111-154-330-350-352-354-374-450-454-472-310100- ...C-MAN AND BUOY OBSERVATIONS... STATION/POSITION TIME TEMP WIND PRES WAVE SWELL AIR SEA DIR/SP/G HT/PER HT/PER/DIR (UTC) (F) (DEG/KT/KT) (MB) (FT/S) (FT/S/D) FOLLY BEACH CMAN 2300 82 90/ 13/ 15 1015.9R BUOY 41004 0000 82 84 90/ 16/ 17 1015.0R 4/ 4 2/ 9 BUOY 41008 0000 82 85 90/ 16/ 17 1014.2F 3/ 4 2/110/ 8 5E ST. MARYS GA 0000 86 N/A 2/ 8 FRYING PAN BUOY NOT AVBL BUOY 41025 0000 VRB 14/ 16 1017.3R 4/ 7 2/ 70/ 7 CAPE LOOKOUT NC 2300 78 70/ 14/ 16 1017.3R BUOY 41002 NOT AVBL BUOY 41010 0000 84 85 210/ 6/ 8 1014.9R 2/ 5 2/170/ 5 BUOY 41012 NOT AVBL ST AUGUSTINE FL 0000 83 120/ 5/ 5 1014.8R CAPERS NEARSHORE 2300 82 110/ 14/ 16 N/A FRIPP NEARSHORE NOT AVBL $$

USA.gov is the U.S. government's official web portal to all federal, state and local government web resources and services.